This demonstration page uses our WeatherBlox Daily Observations layout. Learn more.

Left ArrowRight Arrow

41.55636, -103.73856

Hourly Observations for December 1, 2018

Temp ( °F °C ) Dew Point ( °F °C ) Humidity (%) Winds ( mph kmh ) Pressure ( in mb ) Visibility ( mi km ) Precip ( " mm )
12:58 am 00:58 Mostly Cloudy with Light Snow Showers 31 -0.5 31 -0.7 99 99 NNW 12 19 29.65 1004 3 5 N/A
1:58 am 01:58 Mostly Cloudy 31 -0.7 29 -1.5 94 94 NNW 17 28 29.65 1004 10 16 N/A
2:58 am 02:58 Mostly Cloudy 31 -0.8 27 -2.9 86 86 NNW 17 28 29.66 1004 10 16 N/A
3:58 am 03:58 Mostly Cloudy 30 -1 26 -3.2 85 85 NNW 18 30 29.66 1004 10 16 N/A
4:58 am 04:58 Mostly Cloudy 30 -1.1 27 -2.8 88 88 NNW 17 28 29.66 1004 10 16 0.00 0.00
5:58 am 05:58 Mostly Cloudy 30 -1 27 -3 86 86 NNW 21 33 29.67 1005 10 16 N/A
6:58 am 06:58 Cloudy 29 -1.4 27 -3 89 89 NNW 24 39 29.66 1004 10 16 N/A
7:58 am 07:58 Partly Cloudy 30 -0.9 28 -2.4 90 90 NNW 25 41 29.66 1004 10 16 N/A
8:58 am 08:58 Mostly Cloudy 31 -0.8 28 -2.1 91 91 NNW 25 41 29.67 1005 10 16 N/A
9:58 am 09:58 Windy with Snow Likely 31 -0.8 29 -1.9 92 92 NNW 24 39 29.69 1006 10 16 N/A
10:58 am 10:58 Windy with Snow Showers Likely 31 -0.7 29 -1.8 92 92 NNW 23 37 29.69 1006 3 5 N/A
11:58 am 11:58 Cloudy 31 -0.6 29 -1.9 91 91 NNW 24 39 29.69 1006 10 16 N/A
12:58 pm 12:58 Cloudy 31 -0.5 28 -2.5 87 87 NNW 24 39 29.68 1005 10 16 N/A
1:58 pm 13:58 Cloudy 32 -0.2 27 -2.8 83 83 NNW 25 41 29.69 1005 10 16 N/A
2:58 pm 14:58 Windy with Snow Likely 32 0 27 -2.7 82 82 N 25 41 29.71 1006 10 16 N/A
3:58 pm 15:58 Windy with Snow Showers Likely 32 -0.1 26 -3.1 80 80 NNW 23 37 29.73 1007 10 16 N/A
4:58 pm 16:58 Windy with Snow Likely 31 -0.4 27 -2.9 83 83 N 22 35 29.75 1008 10 16 N/A
5:58 pm 17:58 Windy with Snow Likely 31 -0.5 27 -2.9 84 84 NNW 22 35 29.76 1008 10 16 N/A
6:58 pm 18:58 Cloudy with Light Snow 30 -1.2 28 -2.3 92 92 N 17 28 29.80 1009 6 10 N/A
7:58 pm 19:58 Cloudy with Light Freezing Rain 28 -2.5 26 -3.1 96 96 N 10 17 29.80 1009 5 8 N/A
8:58 pm 20:58 Cloudy with Light Snow 27 -2.9 26 -3.4 96 96 N 9 15 29.83 1010 3 5 N/A
9:58 pm 21:58 Cloudy with Light Snow 27 -3 26 -3.6 96 96 N 9 15 29.85 1011 7 11 0.01 0.25
10:58 pm 22:58 Cloudy with Light Snow 26 -3.3 25 -3.9 96 96 N 8 13 29.86 1011 5 8 0.01 0.25
11:58 pm 23:58 Cloudy with Light Snow 26 -3.5 25 -4.1 96 96 N 8 13 29.87 1012 4 6 0.01 0.25

Powered by AerisWeather